Tracking 22836 objects as of 17-Apr-2021
HD Live streaming from Space Station
objects crossing your sky now

BEIDOU 3M23

Track BEIDOU 3M23 now!
BEIDOU 3M23 is classified as:


NORAD ID: 44542
Int'l Code: 2019-061A
Perigee: 21,514.5 km
Apogee: 21,555.8 km
Inclination: 54.7 °
Period: 773.2 minutes
Semi major axis: 27906 km
RCS: Unknown
Launch date: September 22, 2019
Source: People's Republic of China (PRC)
Launch site: Xichang Space Center, China (XSC)
aabbcc
Your satellite tracking list
Your tracking list is empty




NASA's NSSDC Master Catalog

Two Line Element Set (TLE):
1 44542U 19061A   21107.23497301  .00000016  00000-0  10000-3 0  9997
2 44542  54.7351 246.6086 0007407 339.1366 273.3095  1.86231468 10646
Source of the keplerian elements: AFSPC